| time (UTC) | temp F | wind direction | speed knots | gust knots | rain 1hr in | rain 24hr in | rain mn in | humidity % | barometer mb |
| 20260510074602 | 56 | 17 | 0.9 | 4.3 | 0.00 | 0.00 | 0.00 | 57 | 1010.6 |
| 20260510073052 | 57 | 14 | 0.0 | 5.2 | 0.00 | 0.00 | 0.00 | 57 | 1010.6 |
| 20260510071549 | 57 | 9 | 3.5 | 7.0 | 0.00 | 0.00 | 0.00 | 55 | 1010.7 |
| 20260510070047 | 57 | 12 | 0.9 | 4.3 | 0.00 | 0.00 | 0.00 | 57 | 1010.4 |
| 20260510064559 | 58 | 9 | 2.6 | 4.3 | 0.00 | 0.00 | 0.00 | 57 | 1010.4 |
| 20260510063043 | 58 | 360 | 2.6 | 5.2 | 0.00 | 0.00 | 0.00 | 54 | 1010.5 |
| 20260510061541 | 58 | 5 | 2.6 | 5.2 | 0.00 | 0.00 | 0.00 | 55 | 1010.3 |
| 20260510060041 | 59 | 17 | 0.0 | 7.0 | 0.00 | 0.00 | 0.00 | 54 | 1010.1 |
| 20260510054537 | 59 | 16 | 3.5 | 7.0 | 0.00 | 0.00 | 0.00 | 54 | 1010.0 |
| 20260510053034 | 59 | 11 | 5.2 | 7.8 | 0.00 | 0.00 | 0.00 | 55 | 1009.7 |
| 20260510051532 | 60 | 14 | 5.2 | 7.8 | 0.00 | 0.00 | 0.00 | 54 | 1009.6 |
| 20260510050029 | 61 | 349 | 6.1 | 9.6 | 0.00 | 0.00 | 0.00 | 52 | 1009.3 |
| 20260510044533 | 62 | 13 | 6.1 | 7.8 | 0.00 | 0.00 | 0.00 | 54 | 1009.3 |
| 20260510043022 | 62 | 261 | 0.9 | 3.5 | 0.00 | 0.00 | 0.00 | 47 | 1008.9 |
| 20260510041519 | 62 | 360 | 0.0 | 3.5 | 0.00 | 0.00 | 0.00 | 39 | 1008.7 |
| 20260510040015 | 63 | 226 | 0.9 | 5.2 | 0.00 | 0.00 | 0.00 | 33 | 1008.7 |
| 20260510034512 | 63 | 236 | 3.5 | 7.0 | 0.00 | 0.00 | 0.00 | 30 | 1008.5 |
| 20260510033007 | 64 | 360 | 1.7 | 5.2 | 0.00 | 0.00 | 0.00 | 34 | 1008.3 |
| 20260510031503 | 64 | 235 | 1.7 | 5.2 | 0.00 | 0.00 | 0.00 | 36 | 1008.1 |
| 20260510030059 | 64 | 250 | 2.6 | 7.8 | 0.00 | 0.00 | 0.00 | 42 | 1007.8 |
| 20260510024554 | 65 | 360 | 3.5 | 7.0 | 0.00 | 0.00 | 0.00 | 44 | 1007.8 |
| 20260510023052 | 64 | 360 | 1.7 | 5.2 | 0.00 | 0.00 | 0.00 | 47 | 1007.7 |
| 20260510021545 | 65 | 360 | 3.5 | 5.2 | 0.00 | 0.00 | 0.00 | 50 | 1007.5 |
| 20260510020041 | 65 | 360 | 3.5 | 6.1 | 0.00 | 0.00 | 0.00 | 53 | 1007.1 |
| 20260510014536 | 66 | 360 | 4.3 | 7.8 | 0.00 | 0.01 | 0.00 | 55 | 1006.8 |
| 20260510013031 | 65 | 360 | 4.3 | 7.8 | 0.00 | 0.01 | 0.00 | 55 | 1006.6 |
| 20260510011528 | 65 | 360 | 5.2 | 8.7 | 0.00 | 0.01 | 0.00 | 56 | 1006.4 |
| 20260510010023 | 66 | 360 | 4.3 | 7.8 | 0.00 | 0.01 | 0.00 | 56 | 1006.1 |
| 20260510004519 | 66 | 360 | 4.3 | 6.1 | 0.00 | 0.01 | 0.00 | 57 | 1006.2 |
| 20260510003022 | 67 | 242 | 3.5 | 7.0 | 0.00 | 0.01 | 0.00 | 57 | 1005.9 |
| 20260510001509 | 68 | 242 | 4.3 | 8.7 | 0.00 | 0.01 | 0.00 | 55 | 1005.8 |
| 20260510000005 | 68 | 360 | 4.3 | 15.6 | 0.00 | 0.01 | 0.00 | 55 | 1005.8 |
| 20260509234643 | 69 | 223 | 6.1 | 9.6 | 0.00 | 0.01 | 0.00 | 54 | 1005.8 |
| 20260509233056 | 70 | 326 | 5.2 | 12.2 | 0.00 | 0.01 | 0.00 | 53 | 1005.5 |
| 20260509231551 | 70 | 234 | 7.8 | 13.9 | 0.00 | 0.01 | 0.00 | 53 | 1005.5 |
| 20260509230048 | 71 | 196 | 6.1 | 12.2 | 0.00 | 0.01 | 0.00 | 52 | 1005.4 |
| 20260509224543 | 71 | 246 | 5.2 | 12.2 | 0.00 | 0.03 | 0.00 | 49 | 1005.2 |
| 20260509223039 | 72 | 245 | 6.1 | 17.4 | 0.00 | 0.03 | 0.00 | 47 | 1005.0 |
| 20260509221534 | 72 | 190 | 5.2 | 13.9 | 0.00 | 0.03 | 0.00 | 48 | 1005.0 |
| 20260509220030 | 72 | 360 | 7.0 | 15.6 | 0.00 | 0.03 | 0.00 | 47 | 1004.9 |
| 20260509214525 | 72 | 237 | 9.6 | 17.4 | 0.00 | 0.05 | 0.00 | 46 | 1004.7 |
| 20260509213021 | 72 | 207 | 7.8 | 13.9 | 0.00 | 0.05 | 0.00 | 49 | 1004.8 |
| 20260509211517 | 71 | 217 | 7.8 | 15.6 | 0.00 | 0.05 | 0.00 | 49 | 1004.9 |
| 20260509210012 | 72 | 360 | 11.3 | 19.1 | 0.00 | 0.05 | 0.00 | 49 | 1004.7 |
| 20260509204508 | 72 | 360 | 8.7 | 17.4 | 0.00 | 0.05 | 0.00 | 49 | 1004.9 |
| 20260509203004 | 71 | 360 | 9.6 | 16.5 | 0.00 | 0.05 | 0.00 | 51 | 1005.1 |
| 20260509201622 | 71 | 360 | 9.6 | 16.5 | 0.00 | 0.05 | 0.00 | 51 | 1005.2 |
| 20260509194550 | 71 | 360 | 7.8 | 15.6 | 0.00 | 0.05 | 0.00 | 52 | 1005.5 |
| 20260509193052 | 71 | 360 | 7.0 | 13.9 | 0.00 | 0.05 | 0.00 | 52 | 1005.7 |
| 20260509191553 | 70 | 190 | 8.7 | 13.9 | 0.00 | 0.05 | 0.00 | 53 | 1005.8 |
| 20260509190038 | 69 | 360 | 7.0 | 15.6 | 0.00 | 0.05 | 0.00 | 52 | 1005.9 |
| 20260509184535 | 69 | 360 | 9.6 | 17.4 | 0.00 | 0.05 | 0.00 | 52 | 1006.1 |
| 20260509183028 | 69 | 360 | 8.7 | 13.9 | 0.00 | 0.05 | 0.00 | 51 | 1005.9 |
| 20260509181524 | 68 | 360 | 8.7 | 13.0 | 0.00 | 0.05 | 0.00 | 47 | 1005.9 |
| 20260509180020 | 68 | 360 | 7.8 | 13.0 | 0.00 | 0.05 | 0.00 | 44 | 1006.0 |
| 20260509174515 | 67 | 360 | 7.8 | 13.0 | 0.00 | 0.05 | 0.00 | 44 | 1006.1 |
| 20260509173010 | 66 | 360 | 7.0 | 15.6 | 0.00 | 0.05 | 0.00 | 43 | 1006.3 |
| 20260509171506 | 66 | 360 | 7.8 | 13.9 | 0.00 | 0.05 | 0.00 | 36 | 1006.4 |
| 20260509170002 | 66 | 360 | 7.8 | 15.6 | 0.00 | 0.05 | 0.00 | 39 | 1006.5 |
| 20260509164607 | 65 | 360 | 7.0 | 13.9 | 0.00 | 0.05 | 0.00 | 30 | 1006.7 |
| 20260509163052 | 64 | 360 | 7.0 | 15.6 | 0.00 | 0.05 | 0.00 | 29 | 1006.8 |
| 20260509161556 | 64 | 360 | 8.7 | 13.0 | 0.00 | 0.05 | 0.00 | 22 | 1006.6 |
| 20260509160045 | 64 | 248 | 7.8 | 12.2 | 0.00 | 0.05 | 0.00 | 23 | 1006.6 |
| 20260509154539 | 64 | 360 | 7.8 | 13.0 | 0.00 | 0.05 | 0.00 | 20 | 1006.6 |
| 20260509153037 | 63 | 200 | 7.8 | 13.0 | 0.00 | 0.05 | 0.00 | 21 | 1006.5 |
| 20260509151531 | 61 | 360 | 7.8 | 11.3 | 0.00 | 0.05 | 0.00 | 3 | 1006.6 |
| 20260509150027 | 60 | 360 | 6.1 | 10.4 | 0.00 | 0.05 | 0.00 | 1 | 1006.7 |
| 20260509144531 | 59 | 360 | 6.1 | 13.0 | 0.00 | 0.05 | 0.00 | 1 | 1006.7 |
| 20260509143018 | 59 | 360 | 7.0 | 10.4 | 0.00 | 0.05 | 0.00 | 1 | 1006.6 |
| 20260509141513 | 58 | 235 | 7.0 | 10.4 | 0.00 | 0.05 | 0.00 | 1 | 1006.5 |
| 20260509140008 | 57 | 251 | 5.2 | 11.3 | 0.00 | 0.05 | 0.00 | 1 | 1006.5 |
| 20260509134504 | 56 | 247 | 3.5 | 10.4 | 0.00 | 0.05 | 0.00 | 1 | 1006.5 |
| 20260509133105 | 57 | 246 | 2.6 | 7.8 | 0.00 | 0.05 | 0.00 | 1 | 1006.5 |
| 20260509131559 | 57 | 235 | 4.3 | 7.8 | 0.00 | 0.05 | 0.00 | 1 | 1006.4 |
| 20260509130100 | 57 | 360 | 6.1 | 7.8 | 0.00 | 0.05 | 0.00 | 1 | 1006.7 |
| 20260509124546 | 56 | 360 | 6.1 | 8.7 | 0.00 | 0.05 | 0.00 | 1 | 1006.8 |
| 20260509123047 | 56 | 213 | 4.3 | 8.7 | 0.00 | 0.05 | 0.00 | 1 | 1006.9 |
| 20260509121538 | 56 | 360 | 3.5 | 7.0 | 0.00 | 0.05 | 0.00 | 1 | 1006.9 |
| 20260509120035 | 56 | 360 | 2.6 | 6.1 | 0.00 | 0.05 | 0.00 | 1 | 1006.8 |
| 20260509114529 | 56 | 212 | 3.5 | 7.0 | 0.00 | 0.05 | 0.00 | 1 | 1006.7 |
| 20260509113025 | 55 | 230 | 4.3 | 8.7 | 0.00 | 0.05 | 0.00 | 1 | 1006.7 |
| 20260509111520 | 55 | 213 | 4.3 | 8.7 | 0.00 | 0.05 | 0.00 | 1 | 1006.7 |
| 20260509110020 | 55 | 222 | 5.2 | 7.8 | 0.00 | 0.05 | 0.00 | 1 | 1006.7 |
| 20260509104512 | 55 | 360 | 4.3 | 7.0 | 0.00 | 0.05 | 0.00 | 1 | 1006.7 |
| 20260509103009 | 55 | 221 | 3.5 | 7.8 | 0.00 | 0.05 | 0.00 | 1 | 1006.6 |
| 20260509101506 | 55 | 217 | 4.3 | 7.0 | 0.00 | 0.05 | 0.00 | 1 | 1006.4 |
| 20260509100059 | 55 | 216 | 5.2 | 7.8 | 0.00 | 0.05 | 0.00 | 1 | 1006.5 |
| 20260509094554 | 55 | 208 | 2.6 | 7.0 | 0.00 | 0.05 | 0.00 | 1 | 1006.3 |
| 20260509093050 | 55 | 221 | 4.3 | 6.1 | 0.00 | 0.05 | 0.00 | 1 | 1006.4 |
| 20260509091546 | 55 | 360 | 3.5 | 7.0 | 0.00 | 0.05 | 0.00 | 1 | 1006.5 |
| 20260509090046 | 55 | 214 | 2.6 | 5.2 | 0.00 | 0.05 | 0.00 | 1 | 1006.4 |
| 20260509084541 | 55 | 200 | 2.6 | 5.2 | 0.00 | 0.05 | 0.00 | 1 | 1006.5 |
| 20260509083039 | 55 | 219 | 1.7 | 7.0 | 0.00 | 0.05 | 0.00 | 1 | 1006.6 |
| 20260509081536 | 55 | 219 | 4.3 | 6.1 | 0.00 | 0.05 | 0.00 | 1 | 1006.8 |
| 20260509080035 | 55 | 210 | 4.3 | 7.0 | 0.00 | 0.05 | 0.00 | 1 | 1006.9 |